Regional Weather Roundup
Issued by NWS

Home | Current Version | Previous Version | Text Only | Print | Product List | Glossary On
Versions: 1 2 3 4 5 6 7 8 9 10 11 12 13 14 15 16 17 18 19 20 21 22 23 24 25 26 27 28 29 30 31 32 33 34 35 36 37 38 39 40 41 42 43 44 45 46 47 48 49 50
688
ASUS43 KBIS 211810
RWRND

NORTH DAKOTA REGIONAL WEATHER ROUNDUP
NATIONAL WEATHER SERVICE BISMARCK ND
100 PM CDT SAT OCT 21 2017

NOTE: "FAIR" INDICATES FEW OR NO CLOUDS BELOW 12,000 FEET WITH NO
SIGNIFICANT WEATHER AND/OR OBSTRUCTIONS TO VISIBILITY.


NDZ001>003-009>011-017-211900-
NORTHWEST NORTH DAKOTA

CITY           SKY/WX    TMP DP  RH WIND       PRES   REMARKS
WILLISTON      CLOUDY    48  37  65 W23G32    29.61R
MINOT          CLOUDY    53  39  59 W24G30    29.51R
MINOT AFB      CLOUDY    51  39  62 W23G33    29.49R
$$

NDZ018>021-031>035-040>046-211900-
SOUTHWEST NORTH DAKOTA

CITY           SKY/WX    TMP DP  RH WIND       PRES   REMARKS
BISMARCK       LGT RAIN  50  42  74 W14G21    29.64R
6HR MIN TEMP:  47; 6HR MAX TEMP:  52; 6HR PCP:  0.15;

DICKINSON      CLOUDY    47  36  65 W26G40    29.65R
GARRISON         N/A     49  39  68 W23G36    29.56R
6HR MIN TEMP:  47; 6HR MAX TEMP:  51;

HETTINGER ARPT CLOUDY    49  31  49 W26G40    29.71R
$$

NDZ004>008-012>016-024-026-027-054-211900-
NORTHEAST NORTH DAKOTA

CITY           SKY/WX    TMP DP  RH WIND       PRES   REMARKS
GRAND FORKS    MOSUNNY   63  43  48 W12       29.47S
GRND FRKS AFB  SUNNY     64  41  44 W14       29.47S
DEVILS LAKE    MOSUNNY   54  41  61 W20       29.48S
$$

NDZ022-023-025-028>030-036>039-047>053-211900-
SOUTHEAST NORTH DAKOTA

CITY           SKY/WX    TMP DP  RH WIND       PRES   REMARKS
FARGO          CLOUDY    60  42  51 W10       29.50S
6HR MIN TEMP:  60; 6HR MAX TEMP:  64;

JAMESTOWN      PTSUNNY   55  41  59 W20G26    29.55R
$$





USA.gov is the U.S. government's official web portal to all federal, state and local government web resources and services.